Surface/Precipitation History
02/08/2018 19:50  to  2/9/2018 19:50
Change End Date:
Date/Time
(MDT)
Sf
Temp Chem Water Layer Surface Precipitation
Sfc Pvt Sub Frz Factor Pct Dpth DpthThk IcePct Cond Salin FI Type Intens Accum Rate
02/09/2018 19:47 Ice Warning 29.8F - 37F 32F 95 0% - - 99% 0 mhos 12 - None None - -
02/09/2018 19:46 Ice Warning 29.8F - 37F 32F 95 0% - - 99% 0 mhos 13 - None None - -
02/09/2018 19:36 Ice Warning 30.0F - 37F 32F 95 0% - - 99% 0 mhos 14 - None None - -
02/09/2018 19:32 Ice Warning 30.0F - 37F 32F 95 0% - - 99% 0 mhos 14 - None None - -
02/09/2018 19:26 Ice Warning 30.0F - 37F 32F 95 0% - - 99% 0 mhos 14 - None None - -
02/09/2018 19:17 Ice Warning 30.2F - 37F 32F 95 0% - - 99% 0 mhos 15 - None None - -
02/09/2018 19:16 Ice Warning 30.2F - 37F 32F 95 0% - - 99% 0 mhos 15 - None None - -
02/09/2018 19:06 Ice Warning 30.2F - 37F 32F 95 0% - - 99% 0 mhos 16 - None None - -
02/09/2018 19:02 Ice Warning 30.2F - 37F 32F 95 0% - - 99% 0 mhos 17 - None None - -
02/09/2018 18:56 Ice Warning 30.2F - 37F 32F 95 0% - - 99% 0 mhos 17 - None None - -
02/09/2018 18:47 Ice Warning 30.4F - 37F 32F 95 0% - - 99% 0 mhos 17 - None None - -
02/09/2018 18:46 Ice Warning 30.4F - 37F 32F 95 0% - - 99% 0 mhos 17 - None None - -
02/09/2018 18:36 Ice Warning 30.6F - 37F 32F 95 0% - - 99% 0 mhos 16 - None None - -
02/09/2018 18:26 Ice Warning 30.6F - 37F 32F 95 0% - - 99% 0 mhos 17 - None None - -
02/09/2018 18:17 Ice Warning 30.9F - 37F 32F 95 0% - - 98% 0 mhos 18 - None None - -
Date/Time
(MDT)
Sf
Temp Chem Water Layer Surface Precipitation
Sfc Pvt Sub Frz Factor Pct Dpth DpthThk IcePct Cond Salin FI Type Intens Accum Rate
02/09/2018 18:16 Ice Warning 30.7F - 37F 32F 95 0% - - 98% 0 mhos 18 - None None - -
02/09/2018 18:06 Ice Warning 30.9F - 37F 32F 95 0% - - 98% 0 mhos 20 - None None - -
02/09/2018 18:02 Ice Warning 31.1F - 37F 32F 95 0% - - 98% 0 mhos 20 - None None - -
02/09/2018 17:55 Ice Warning 31.3F - 37F 32F 95 0% - - 97% 0 mhos 22 - None None - -
02/09/2018 17:47 Ice Warning 31.5F - 37F 32F 95 0% - - 96% 0 mhos 24 - None None - -
02/09/2018 17:45 Ice Warning 31.5F - 37F 32F 95 0% - - 96% 0 mhos 24 - None None - -
02/09/2018 17:35 Ice Warning 31.6F - 37F 32F 95 0% - - 91% 0 mhos 26 - None None - -
02/09/2018 17:32 Chemically Wet 31.8F - 37F 32F 95 0% - - 81% 0 mhos 28 - None None - -
02/09/2018 17:25 Chemically Wet 32.0F - 37F 32F 95 0% 0.10 in - 0% 0 mhos 29 - None None - -
02/09/2018 17:17 Wet 32.4F - 37F 32F 95 0% 0.10 in - 0% 0 mhos 33 - None None - -
02/09/2018 17:15 Wet 32.5F - 37F 32F 95 0% 0.10 in - 0% 0 mhos 33 - None None - -
02/09/2018 17:05 Wet 32.9F - 37F 32F 95 0% 0.10 in - 0% 0 mhos 38 - None None - -
02/09/2018 17:02 Wet 33.3F - 37F 32F 95 0% 0.10 in - 0% 0 mhos 39 - None None - -
02/09/2018 16:55 Wet 33.4F - 37F 32F 95 0% 0.10 in - 0% 0 mhos 41 - None None - -
02/09/2018 16:47 Wet 33.6F - 37F 32F 95 0% 0.10 in - 0% 0 mhos 47 - None None - -
Date/Time
(MDT)
Sf
Temp Chem Water Layer Surface Precipitation
Sfc Pvt Sub Frz Factor Pct Dpth DpthThk IcePct Cond Salin FI Type Intens Accum Rate
02/09/2018 16:45 Wet 33.6F - 37F 32F 95 0% 0.00 in - 0% 0 mhos 47 - None None - -
02/09/2018 16:35 Wet 34.0F - 37F 32F 95 0% 0.10 in - 0% 1 mhos 53 - None None - -
02/09/2018 16:32 Wet 34.3F - 37F 32F 95 0% 0.00 in - 0% 1 mhos 56 - None None - -
02/09/2018 16:25 Wet 34.7F - 37F 32F 95 0% 0.00 in - 0% 1 mhos 59 - None None - -
02/09/2018 16:17 Wet 34.9F - 37F 32F 95 0% 0.00 in - 0% 1 mhos 68 - None None - -
02/09/2018 16:15 Wet 34.9F - 37F 32F 95 0% 0.00 in - 0% 1 mhos 69 - None None - -
02/09/2018 16:05 Wet 35.2F - 37F 32F 95 0% 0.00 in - 0% 1 mhos 79 - None None - -
02/09/2018 16:02 Wet 35.2F - 37F 32F 95 0% 0.00 in - 0% 1 mhos 82 - None None - -
02/09/2018 15:55 Wet 35.4F - 37F 32F 95 0% 0.00 in - 0% 1 mhos 91 - None None - -
02/09/2018 15:47 Wet 36.0F - 37F 32F 95 0% 0.00 in - 0% 1 mhos 101 - None None - -
02/09/2018 15:45 Wet 36.1F - 37F 32F 95 0% 0.00 in - 0% 1 mhos 103 - None None - -
02/09/2018 15:35 Wet 36.7F - 37F 32F 95 0% 0.00 in - 0% 1 mhos 119 - None None - -
02/09/2018 15:32 Wet 36.9F - 37F 32F 95 0% 0.00 in - 0% 1 mhos 121 - None None - -
02/09/2018 15:25 Wet 37.2F - 37F 32F 95 0% 0.00 in - 0% 1 mhos 129 - None None - -
02/09/2018 15:17 Wet 37.4F - 37F 32F 95 1% 0.00 in - 0% 1 mhos 136 - None None - -
Date/Time
(MDT)
Sf
Temp Chem Water Layer Surface Precipitation
Sfc Pvt Sub Frz Factor Pct Dpth DpthThk IcePct Cond Salin FI Type Intens Accum Rate
02/09/2018 15:14 Wet 37.4F - 37F 32F 95 1% 0.00 in - 0% 1 mhos 140 - None None - -
02/09/2018 15:04 Wet 37.4F - 37F 32F 95 1% 0.00 in - 0% 2 mhos 153 - None None - -
02/09/2018 15:02 Wet 37.4F - 37F 32F 95 1% 0.00 in - 0% 2 mhos 157 - None None - -
02/09/2018 14:54 Wet 37.4F - 38F 32F 95 1% 0.00 in - 0% 2 mhos 166 - None None - -
02/09/2018 14:47 Wet 37.0F - 38F 32F 95 1% 0.00 in - 0% 2 mhos 176 - None None - -
02/09/2018 14:44 Wet 37.0F - 38F 32F 95 1% 0.00 in - 0% 2 mhos 182 - None None - -
02/09/2018 14:34 Wet 37.0F - 38F 32F 95 1% 0.00 in - 0% 2 mhos 200 - None None - -
02/09/2018 14:32 Wet 36.9F - 38F 32F 95 1% 0.00 in - 0% 2 mhos 207 - None None - -
02/09/2018 14:24 Wet 36.3F - 38F 32F 95 1% 0.00 in - 0% 2 mhos 229 - None None - -
02/09/2018 14:17 Wet 36.3F - 38F 32F 95 1% 0.00 in - 0% 3 mhos 252 - None None - -
02/09/2018 14:14 Wet 36.3F - 38F 32F 95 1% 0.00 in - 0% 3 mhos 267 - None None - -
02/09/2018 14:04 Wet 36.7F - 38F 32F 95 1% 0.00 in - 0% 3 mhos 331 - None None - -
02/09/2018 14:02 Wet 36.5F - 38F 32F 95 1% 0.00 in - 0% 4 mhos 352 - None None - -
02/09/2018 13:54 Wet 35.8F - 38F 31F 95 2% 0.00 in - 0% 4 mhos 421 - None None - -
02/09/2018 13:47 Wet 34.9F - 38F 31F 95 2% 0.00 in - 0% 5 mhos 477 - None None - -
Date/Time
(MDT)
Sf
Temp Chem Water Layer Surface Precipitation
Sfc Pvt Sub Frz Factor Pct Dpth DpthThk IcePct Cond Salin FI Type Intens Accum Rate
02/09/2018 13:44 Wet 34.9F - 38F 31F 95 2% 0.00 in - 0% 5 mhos 499 - None None - -
02/09/2018 13:34 Wet 36.1F - 38F 31F 95 2% 0.00 in - 0% 6 mhos 573 - None None - -
02/09/2018 13:32 Wet 36.3F - 38F 31F 95 2% 0.00 in - 0% 6 mhos 572 - None None - -
02/09/2018 13:24 Wet 38.1F - 38F 31F 95 2% 0.00 in - 0% 6 mhos 619 - None None - -
02/09/2018 13:17 Wet 35.8F - 38F 31F 95 3% 0.00 in - 0% 6 mhos 659 - None None - -
02/09/2018 13:14 Wet 35.6F - 38F 31F 95 3% 0.00 in - 0% 7 mhos 680 - None None - -
02/09/2018 13:04 Wet 36.9F - 38F 31F 95 3% 0.00 in - 0% 7 mhos 731 - None None - -
02/09/2018 13:02 Wet 37.4F - 38F 31F 95 3% 0.00 in - 0% 8 mhos 750 - None None - -
02/09/2018 12:54 Wet 38.5F - 38F 31F 95 3% 0.00 in - 0% 8 mhos 764 - None None - -
02/09/2018 12:47 Wet 37.6F - 38F 31F 95 3% 0.00 in - 0% 8 mhos 799 - None None - -
02/09/2018 12:44 Wet 38.5F - 38F 31F 95 3% 0.00 in - 0% 9 mhos 879 - None None - -
02/09/2018 12:33 Wet 37.4F - 38F 31F 95 3% 0.00 in - 0% 8 mhos 832 - None None - -
02/09/2018 12:32 Wet 37.8F - 38F 31F 95 3% 0.00 in - 0% 8 mhos 827 - None None - -
02/09/2018 12:23 Wet 36.7F - 38F 31F 95 3% 0.00 in - 0% 8 mhos 810 - None None - -
02/09/2018 12:17 Wet 36.3F - 38F 31F 95 3% 0.00 in - 0% 8 mhos 842 - None None - -
Date/Time
(MDT)
Sf
Temp Chem Water Layer Surface Precipitation
Sfc Pvt Sub Frz Factor Pct Dpth DpthThk IcePct Cond Salin FI Type Intens Accum Rate
02/09/2018 12:13 Wet 36.0F - 38F 31F 95 4% 0.00 in - 0% 9 mhos 939 - None None - -
02/09/2018 12:03 Wet 36.1F - 38F 31F 95 4% 0.00 in - 0% 9 mhos 955 - None None - -
02/09/2018 12:02 Wet 36.3F - 38F 31F 95 4% 0.00 in - 0% 9 mhos 962 - None None - -
02/09/2018 11:53 Wet 37.0F - 38F 31F 95 4% 0.00 in - 0% 10 mhos 957 - None None - -
02/09/2018 11:47 Wet 36.5F - 38F 31F 95 4% 0.00 in - 0% 9 mhos 937 - None None - -
02/09/2018 11:43 Wet 35.2F - 38F 31F 95 4% 0.00 in - 0% 9 mhos 960 - None None - -
02/09/2018 11:33 Wet 33.8F - 38F 31F 95 4% 0.00 in - 0% 9 mhos 928 - None None - -
02/09/2018 11:32 Wet 33.6F - 38F 31F 95 4% 0.00 in - 0% 9 mhos 925 - None None - -
02/09/2018 11:23 Wet 33.4F - 38F 31F 95 3% 0.00 in - 0% 8 mhos 829 - None None - -
02/09/2018 11:17 Wet 34.3F - 38F 31F 95 3% 0.10 in - 0% 8 mhos 783 - None None - -
02/09/2018 11:13 Wet 35.4F - 38F 31F 95 3% 0.10 in - 0% 8 mhos 822 - None None - -
02/09/2018 11:03 Wet 34.5F - 38F 31F 95 3% 0.10 in - 0% 8 mhos 870 - None None - -
02/09/2018 11:02 Wet 34.2F - 38F 31F 95 3% 0.10 in - 0% 7 mhos 783 - None None - -
02/09/2018 10:53 Wet 33.3F - 38F 31F 95 3% 0.10 in - 0% 7 mhos 761 - None None - -
02/09/2018 10:47 Chemically Wet 32.0F - 38F 31F 95 3% 0.10 in - 0% 8 mhos 861 - None None - -
Date/Time
(MDT)
Sf
Temp Chem Water Layer Surface Precipitation
Sfc Pvt Sub Frz Factor Pct Dpth DpthThk IcePct Cond Salin FI Type Intens Accum Rate
02/09/2018 10:43 Chemically Wet 31.5F - 38F 31F 95 3% 0.00 in - 0% 8 mhos 821 - None None - -
02/09/2018 10:33 Chemically Wet 30.9F - 38F 32F 95 1% - - 70% 3 mhos 314 - None None - -
02/09/2018 10:32 Chemically Wet 30.9F - 38F 32F 95 1% - - 73% 3 mhos 282 - None None - -
02/09/2018 10:23 Ice Warning 30.6F - 39F 32F 95 1% - - 88% 2 mhos 176 - None None - -
02/09/2018 10:17 Ice Warning 30.2F - 39F 32F 95 1% - - 90% 2 mhos 171 - None None - -
02/09/2018 10:13 Ice Warning 30.0F - 38F 32F 90 1% - - 92% 1 mhos 165 - None None - -
02/09/2018 10:02 Ice Warning 29.1F - 39F 32F 90 1% - - 95% 1 mhos 152 - None None - -
02/09/2018 10:02 Ice Warning 28.9F - 39F 32F 85 1% - - 95% 1 mhos 149 - None None - -
02/09/2018 09:52 Ice Warning 27.9F - 39F 32F 85 0% - - 97% 1 mhos 125 - None None - -
02/09/2018 09:47 Ice Warning 27.3F - 39F 32F 85 0% - - 97% 1 mhos 119 - None None - -
02/09/2018 09:42 Ice Warning 27.3F - 39F 32F 85 0% - - 98% 1 mhos 116 - None None - -
02/09/2018 09:32 Ice Warning 26.6F - 39F 32F 85 0% - - 98% 1 mhos 109 - None None - -
02/09/2018 09:32 Ice Warning 26.6F - 39F 32F 85 0% - - 98% 1 mhos 108 - None None - -
02/09/2018 09:22 Ice Warning 26.6F - 39F 32F 80 0% - - 98% 1 mhos 104 - None None - -
02/09/2018 09:17 Ice Warning 26.4F - 39F 32F 80 0% - - 98% 1 mhos 102 - None None - -
Date/Time
(MDT)
Sf
Temp Chem Water Layer Surface Precipitation
Sfc Pvt Sub Frz Factor Pct Dpth DpthThk IcePct Cond Salin FI Type Intens Accum Rate
02/09/2018 09:12 Ice Warning 26.2F - 39F 32F 75 0% - - 98% 1 mhos 100 - None None - -
02/09/2018 09:02 Ice Warning 26.2F - 39F 32F 70 0% - - 98% 1 mhos 96 - None None - -
02/09/2018 08:52 Ice Warning 26.2F - 39F 32F 75 0% - - 98% 1 mhos 95 - None None - -
02/09/2018 08:47 Ice Warning 26.4F - 39F 32F 80 0% - - 98% 1 mhos 96 - None None - -
02/09/2018 08:42 Ice Warning 26.4F - 39F 32F 80 0% - - 98% 1 mhos 95 - None None - -
02/09/2018 08:32 Ice Warning 26.6F - 39F 32F 80 0% - - 98% 1 mhos 96 - None None - -
02/09/2018 08:32 Ice Warning 26.6F - 39F 32F 80 0% - - 98% 1 mhos 96 - None None - -
02/09/2018 08:22 Ice Warning 26.6F - 39F 32F 75 0% - - 98% 1 mhos 95 - None None - -
02/09/2018 08:16 Ice Warning 26.6F - 39F 32F 75 0% - - 98% 1 mhos 93 - None None - -
02/09/2018 08:12 Ice Warning 26.6F - 39F 32F 70 0% - - 98% 1 mhos 93 - None None - -
02/09/2018 08:02 Ice Warning 26.6F - 39F 32F 70 0% - - 98% 1 mhos 89 - None None - -
02/09/2018 08:01 Ice Warning 26.6F - 39F 32F 70 0% - - 98% 1 mhos 89 - Yes - - -
02/09/2018 07:52 Ice Warning 26.8F - 39F 32F 70 0% - - 98% 1 mhos 86 - None None - -
02/09/2018 07:46 Ice Warning 26.8F - 39F 32F 70 0% - - 98% 1 mhos 87 - None None - -
02/09/2018 07:42 Ice Warning 27.1F - 39F 32F 75 0% - - 98% 1 mhos 88 - None None - -
Date/Time
(MDT)
Sf
Temp Chem Water Layer Surface Precipitation
Sfc Pvt Sub Frz Factor Pct Dpth DpthThk IcePct Cond Salin FI Type Intens Accum Rate
02/09/2018 07:32 Ice Warning 27.7F - 39F 32F 85 0% - - 98% 1 mhos 93 - None None - -
02/09/2018 07:32 Ice Warning 27.7F - 39F 32F 85 0% - - 98% 1 mhos 93 - None None - -
02/09/2018 07:21 Ice Warning 28.4F - 39F 32F 90 0% - - 97% 1 mhos 100 - None None - -
02/09/2018 07:17 Ice Warning 28.8F - 39F 32F 95 0% - - 97% 1 mhos 105 - None None - -
02/09/2018 07:11 Ice Warning 28.9F - 39F 32F 95 0% - - 96% 1 mhos 110 - None None - -
02/09/2018 07:02 Ice Warning 29.5F - 39F 32F 95 0% - - 95% 1 mhos 115 - Yes - - -
02/09/2018 07:01 Ice Warning 29.5F - 39F 32F 95 0% - - 95% 1 mhos 115 - Yes - - -
02/09/2018 06:51 Ice Warning 29.3F - 39F 32F 95 0% - - 95% 1 mhos 118 - Yes - - -
02/09/2018 06:47 Ice Warning 29.3F - 39F 32F 95 0% - - 96% 1 mhos 116 - Yes - - -
02/09/2018 06:41 Ice Warning 29.1F - 39F 32F 95 0% - - 96% 1 mhos 114 - Yes - - -
02/09/2018 06:32 Ice Warning 29.1F - 39F 32F 95 0% - - 96% 1 mhos 110 - Yes - - -
02/09/2018 06:31 Ice Warning 29.1F - 39F 32F 95 0% - - 96% 1 mhos 109 - Yes - - -
02/09/2018 06:21 Ice Warning 28.9F - 40F 32F 95 0% - - 97% 1 mhos 106 - Yes - - -
02/09/2018 06:17 Ice Warning 28.9F - 40F 32F 95 0% - - 96% 1 mhos 105 - Yes - - -
02/09/2018 06:11 Ice Warning 28.9F - 40F 32F 95 0% - - 97% 1 mhos 105 - Yes - - -
Date/Time
(MDT)
Sf
Temp Chem Water Layer Surface Precipitation
Sfc Pvt Sub Frz Factor Pct Dpth DpthThk IcePct Cond Salin FI Type Intens Accum Rate
02/09/2018 06:02 Ice Warning 29.1F - 40F 32F 95 0% - - 96% 1 mhos 105 - None None - -
02/09/2018 06:01 Ice Warning 29.1F - 40F 32F 95 0% - - 96% 1 mhos 105 - None None - -
02/09/2018 05:51 Ice Warning 29.1F - 40F 32F 95 0% - - 96% 1 mhos 110 - None None - -
02/09/2018 05:47 Ice Warning 29.1F - 40F 32F 85 0% - - 96% 1 mhos 111 - None None - -
02/09/2018 05:41 Ice Warning 29.1F - 40F 32F 95 0% - - 96% 1 mhos 109 - None None - -
02/09/2018 05:32 Ice Warning 29.3F - 40F 32F 85 0% - - 96% 1 mhos 110 - None None - -
02/09/2018 05:31 Ice Warning 29.3F - 40F 32F 80 0% - - 96% 1 mhos 110 - None None - -
02/09/2018 05:21 Ice Warning 29.5F - 40F 32F 80 0% - - 95% 1 mhos 112 - None None - -
02/09/2018 05:17 Ice Warning 29.5F - 40F 32F 80 0% - - 95% 1 mhos 112 - Yes - - -
02/09/2018 05:11 Ice Warning 29.5F - 40F 32F 80 0% - - 95% 1 mhos 112 - Yes - - -
02/09/2018 05:02 Ice Warning 29.7F - 40F 32F 95 0% - - 95% 1 mhos 113 - Yes - - -
02/09/2018 05:01 Ice Warning 29.7F - 40F 32F 80 0% - - 95% 1 mhos 113 - Yes - - -
02/09/2018 04:51 Ice Warning 29.8F - 40F 32F 80 0% - - 95% 1 mhos 112 - None None - -
02/09/2018 04:47 Ice Warning 29.8F - 40F 32F 75 0% - - 95% 1 mhos 110 - Yes - - -
02/09/2018 04:41 Ice Warning 29.8F - 40F 32F 70 0% - - 95% 1 mhos 103 - None None - -
Date/Time
(MDT)
Sf
Temp Chem Water Layer Surface Precipitation
Sfc Pvt Sub Frz Factor Pct Dpth DpthThk IcePct Cond Salin FI Type Intens Accum Rate
02/09/2018 04:32 Ice Warning 30.0F - 40F 32F 75 0% - - 97% 1 mhos 62 - None None - -
02/09/2018 04:30 Ice Warning 30.2F - 40F 32F 70 0% - - 97% 0 mhos 50 - None None - -
02/09/2018 04:20 Ice Warning 30.9F - 40F 32F 35 0% - - 97% 0 mhos 29 - Yes - - -
02/09/2018 04:17 Ice Warning 30.9F - 40F 32F 30 0% - - 97% 0 mhos 29 - Yes - - -
02/09/2018 04:10 Ice Warning 30.9F - 40F 32F 35 0% - - 97% 0 mhos 29 - Yes - - -
02/09/2018 04:02 Ice Warning 31.1F - 40F 32F 35 0% - - 97% 0 mhos 31 - None None - -
02/09/2018 04:00 Ice Warning 31.1F - 40F 32F 35 0% - - 97% 0 mhos 31 - None None - -
02/09/2018 03:50 Ice Warning 31.1F - 40F 32F 35 0% - - 96% 0 mhos 38 - None None - -
02/09/2018 03:47 Ice Warning 31.3F - 40F 32F 35 0% - - 95% 0 mhos 39 - None None - -
02/09/2018 03:40 Ice Warning 31.5F - 40F 32F 30 0% - - 93% 0 mhos 40 - None None - -
02/09/2018 03:32 Ice Warning 31.5F - 40F 32F 30 0% - - 92% 0 mhos 41 - None None - -
02/09/2018 03:30 Ice Warning 31.3F - 40F 32F 30 0% - - 94% 0 mhos 42 - None None - -
02/09/2018 03:20 Ice Warning 31.5F - 40F 32F 30 0% - - 93% 0 mhos 42 - Yes - - -
02/09/2018 03:17 Ice Warning 31.5F - 40F 32F 35 0% - - 90% 0 mhos 42 - Yes - - -
02/09/2018 03:10 Ice Warning 31.5F - 40F 32F 35 0% - - 90% 0 mhos 43 - None None - -
Date/Time
(MDT)
Sf
Temp Chem Water Layer Surface Precipitation
Sfc Pvt Sub Frz Factor Pct Dpth DpthThk IcePct Cond Salin FI Type Intens Accum Rate
02/09/2018 03:02 Chemically Wet 31.6F - 40F 32F 35 0% - - 85% 0 mhos 44 - Yes - - -
02/09/2018 03:00 Chemically Wet 31.8F - 40F 32F 40 0% - - 69% 0 mhos 44 - Yes - - -
02/09/2018 02:50 Chemically Wet 32.0F - 40F 32F 35 0% 0.00 in - 0% 0 mhos 44 - Yes - - -
02/09/2018 02:47 Chemically Wet 32.0F - 40F 32F 40 0% 0.00 in - 0% 0 mhos 45 - None None - -
02/09/2018 02:40 Chemically Wet 32.0F - 40F 32F 35 0% 0.00 in - 0% 0 mhos 44 - None None - -
02/09/2018 02:32 Wet 32.2F - 40F 32F 30 0% 0.00 in - 0% 0 mhos 45 - None None - -
02/09/2018 02:30 Wet 32.2F - 40F 32F 35 0% 0.00 in - 0% 0 mhos 44 - None None - -
02/09/2018 02:20 Wet 32.4F - 40F 32F 35 0% 0.00 in - 0% 0 mhos 44 - None None - -
02/09/2018 02:17 Wet 32.4F - 40F 32F 30 0% 0.00 in - 0% 0 mhos 44 - None None - -
02/09/2018 02:10 Wet 32.4F - 40F 32F 30 0% 0.00 in - 0% 0 mhos 44 - None None - -
02/09/2018 02:02 Wet 32.4F - 40F 32F 35 0% 0.00 in - 0% 0 mhos 44 - None None - -
02/09/2018 01:59 Wet 32.4F - 40F 32F 40 0% 0.00 in - 0% 0 mhos 44 - None None - -
02/09/2018 01:49 Wet 32.5F - 40F 32F 45 0% 0.00 in - 0% 0 mhos 44 - None None - -
02/09/2018 01:47 Wet 32.5F - 40F 32F 40 0% 0.00 in - 0% 0 mhos 45 - None None - -
02/09/2018 01:39 Wet 32.5F - 40F 32F 25 0% 0.00 in - 0% 0 mhos 45 - Yes - - -
Date/Time
(MDT)
Sf
Temp Chem Water Layer Surface Precipitation
Sfc Pvt Sub Frz Factor Pct Dpth DpthThk IcePct Cond Salin FI Type Intens Accum Rate
02/09/2018 01:32 Wet 32.5F - 40F 32F 75 0% 0.00 in - 0% 0 mhos 45 - Yes - - -
02/09/2018 01:29 Wet 32.5F - 40F 32F 50 0% 0.00 in - 0% 0 mhos 46 - Yes - - -
02/09/2018 01:19 Wet 32.5F - 40F 32F 60 0% 0.00 in - 0% 0 mhos 48 - Yes - - -
02/09/2018 01:17 Wet 32.5F - 40F 32F 55 0% 0.00 in - 0% 0 mhos 48 - Yes - - -
02/09/2018 01:09 Wet 32.4F - 40F 32F 60 0% 0.00 in - 0% 1 mhos 60 - Yes - - -
02/09/2018 01:02 Wet 32.4F - 40F 32F 70 1% 0.00 in - 0% 2 mhos 228 - Yes - - -
02/09/2018 00:59 Wet 32.2F - 40F 32F 95 1% 0.00 in - 0% 2 mhos 177 - Yes - - -
02/09/2018 00:49 Wet 32.5F - 40F 32F 15 0% 0.10 in - 0% 0 mhos 3 - Yes - - -
02/09/2018 00:47 Wet 32.5F - 40F 32F 15 0% 0.10 in - 0% 0 mhos 3 - Yes - - -
02/09/2018 00:39 Wet 32.5F - 40F 32F 25 0% 0.10 in - 0% 0 mhos 3 - Yes - - -
02/09/2018 00:32 Wet 32.5F - 40F 32F 50 0% 0.40 in - 0% 0 mhos 2 - Yes - - -
02/09/2018 00:29 Wet 32.5F - 40F 32F 50 0% 0.40 in - 0% 0 mhos 2 - Yes - - -
02/09/2018 00:19 Wet 32.5F - 40F 32F 60 0% 0.50 in - 0% 0 mhos 3 - Yes - - -
02/09/2018 00:17 Wet 32.5F - 40F 32F 45 0% 0.20 in - 0% 0 mhos 3 - Yes - - -
02/09/2018 00:09 Wet 32.5F - 40F 32F 40 0% 0.20 in - 0% 0 mhos 3 - Yes - - -
Date/Time
(MDT)
Sf
Temp Chem Water Layer Surface Precipitation
Sfc Pvt Sub Frz Factor Pct Dpth DpthThk IcePct Cond Salin FI Type Intens Accum Rate
02/09/2018 00:02 Wet 32.5F - 40F 32F 20 0% 0.10 in - 0% 0 mhos 4 - Yes - - -
02/08/2018 23:59 Wet 32.5F - 40F 32F 25 0% 0.10 in - 0% 0 mhos 4 - Yes - - -
02/08/2018 23:49 Wet 32.9F - 40F 32F 35 0% 0.10 in - 0% 0 mhos 5 - Yes - - -
02/08/2018 23:47 Wet 32.9F - 40F 32F 35 0% 0.10 in - 0% 0 mhos 4 - Yes - - -
02/08/2018 23:39 Wet 32.9F - 40F 32F 25 0% 0.10 in - 0% 0 mhos 4 - Yes - - -
02/08/2018 23:32 Wet 32.9F - 40F 32F 20 0% 0.10 in - 0% 0 mhos 4 - Yes - - -
02/08/2018 23:29 Wet 33.1F - 40F 32F 20 0% 0.10 in - 0% 0 mhos 4 - Yes - - -
02/08/2018 23:18 Wet 33.3F - 40F 32F 20 0% 0.10 in - 0% 0 mhos 4 - Yes - - -
02/08/2018 23:17 Wet 33.3F - 40F 32F 20 0% 0.10 in - 0% 0 mhos 4 - Yes - - -
02/08/2018 23:08 Wet 33.4F - 40F 32F 15 0% 0.10 in - 0% 0 mhos 4 - Yes - - -
02/08/2018 23:02 Wet 33.8F - 40F 32F 25 0% 0.10 in - 0% 0 mhos 4 - Yes - - -
02/08/2018 22:58 Wet 34.2F - 40F 32F 10 0% 0.10 in - 0% 0 mhos 4 - Yes - - -
02/08/2018 22:48 Wet 36.1F - 40F 32F 15 0% 0.10 in - 0% 0 mhos 3 - Yes - - -
02/08/2018 22:47 Wet 36.1F - 40F 32F 15 0% 0.10 in - 0% 0 mhos 3 - Yes - - -
02/08/2018 22:38 Wet 37.8F - 40F 32F 20 0% 0.10 in - 0% 0 mhos 4 - Yes - - -
Date/Time
(MDT)
Sf
Temp Chem Water Layer Surface Precipitation
Sfc Pvt Sub Frz Factor Pct Dpth DpthThk IcePct Cond Salin FI Type Intens Accum Rate
02/08/2018 22:32 Wet 38.7F - 40F 32F 20 0% 0.10 in - 0% 0 mhos 4 - Yes - - -
02/08/2018 22:28 Wet 38.8F - 40F 32F 15 0% 0.10 in - 0% 0 mhos 4 - Yes - - -
02/08/2018 22:18 Wet 38.8F - 40F 32F 15 0% 0.10 in - 0% 0 mhos 3 - Yes - - -
02/08/2018 22:17 Wet 38.7F - 40F 32F 20 0% 0.10 in - 0% 0 mhos 3 - Yes - - -
02/08/2018 22:08 Wet 39.7F - 40F 32F 25 0% 0.10 in - 0% 0 mhos 4 - Yes - - -
02/08/2018 22:02 Wet 39.4F - 40F 32F 25 0% 0.10 in - 0% 0 mhos 4 - Yes - - -
02/08/2018 21:58 Wet 39.2F - 40F 32F 20 0% 0.10 in - 0% 0 mhos 4 - Yes - - -
02/08/2018 21:48 Wet 38.7F - 40F 32F 20 0% 0.10 in - 0% 0 mhos 4 - Yes - - -
02/08/2018 21:47 Wet 38.8F - 40F 32F 20 0% 0.10 in - 0% 0 mhos 4 - Yes - - -
02/08/2018 21:38 Wet 39.7F - 40F 32F 25 0% 0.10 in - 0% 0 mhos 5 - Yes - - -
02/08/2018 21:32 Wet 39.6F - 40F 32F 25 0% 0.10 in - 0% 0 mhos 5 - Yes - - -
02/08/2018 21:28 Wet 39.6F - 40F 32F 25 0% 0.00 in - 0% 0 mhos 6 - Yes - - -
02/08/2018 21:18 Wet 40.6F - 40F 32F 45 0% 0.00 in - 0% 0 mhos 8 - Yes - - -
02/08/2018 21:17 Wet 40.6F - 40F 32F 45 0% 0.10 in - 0% 0 mhos 8 - Yes - - -
02/08/2018 21:08 Wet 41.0F - 40F 32F 90 0% 0.10 in - 0% 0 mhos 13 - Yes - - -
Date/Time
(MDT)
Sf
Temp Chem Water Layer Surface Precipitation
Sfc Pvt Sub Frz Factor Pct Dpth DpthThk IcePct Cond Salin FI Type Intens Accum Rate
02/08/2018 21:02 Wet 41.5F - 40F 32F 10 0% 0.00 in - 0% 0 mhos 16 - Yes - - -
02/08/2018 20:58 Wet 41.2F - 40F 32F 5 0% 0.00 in - 0% 0 mhos 17 - Yes - - -
02/08/2018 20:48 Wet 41.9F - 40F 32F 10 0% 0.00 in - 0% 0 mhos 17 - None None - -
02/08/2018 20:47 Wet 41.9F - 40F 32F 10 0% 0.00 in - 0% 0 mhos 16 - None None - -
02/08/2018 20:37 Wet 42.1F - 40F 32F 10 0% 0.00 in - 0% 0 mhos 17 - None None - -
02/08/2018 20:32 Wet 42.3F - 40F 32F 10 0% 0.00 in - 0% 0 mhos 17 - Yes - - -
02/08/2018 20:27 Wet 42.3F - 40F 32F 10 0% 0.00 in - 0% 0 mhos 17 - Yes - - -
02/08/2018 20:17 Wet 42.3F - 40F 32F 10 0% 0.00 in - 0% 0 mhos 17 - Yes - - -
02/08/2018 20:17 Wet 42.3F - 40F 32F 10 0% 0.00 in - 0% 0 mhos 17 - Yes - - -
02/08/2018 20:07 Wet 42.3F - 40F 32F 10 0% 0.00 in - 0% 0 mhos 17 - None None - -
02/08/2018 20:02 Wet 42.4F - 40F 32F 10 0% 0.00 in - 0% 0 mhos 17 - None None - -
02/08/2018 19:57 Wet 42.3F - 40F 32F 10 0% 0.00 in - 0% 0 mhos 17 - None None - -
Change End Date:

Copyright © 1998-2015 Vaisala, Inc.
All Rights Reserved
Send comments about the data to:
SCAN Web ® is a registered trademark of Vaisala, Inc.
SCAN Web Version 6.0